GW1851 Weather Reports


time (UTC)temp
C
wind
direction
speed
KPH
gust
KPH
rain 1hr
cm
rain 24hr
cm
rain mn
cm
humidity
%
barometer
mb
20260906135707 23 222 1.6 1.6 0.00 0.00 0.00 92 1018.6
20260906135203 23 105 1.6 1.6 0.00 0.00 0.00 93 1018.5
20260906134658 23 218 0.0 1.6 0.00 0.00 0.00 94 1018.5
20260906134153 23 218 0.0 0.0 0.00 0.00 0.00 94 1018.6
20260906133649 22 210 0.0 0.0 0.00 0.00 0.00 95 1018.6
20260906133144 22 213 0.0 0.0 0.00 0.00 0.00 95 1018.6
20260906132639 22 223 1.6 1.6 0.00 0.00 0.00 95 1018.6
20260906132135 22 209 0.0 0.0 0.00 0.00 0.00 95 1018.6
20260906131630 22 167 0.0 0.0 0.00 0.00 0.00 95 1018.8
20260906131125 22 216 1.6 1.6 0.00 0.00 0.00 95 1018.4
20260906130621 22 219 0.0 0.0 0.00 0.00 0.00 96 1018.3
20260906130115 22 210 0.0 0.0 0.00 0.00 0.00 96 1018.2
20260906125613 22 209 0.0 0.0 0.00 0.00 0.00 96 1018.6
20260906125106 22 209 0.0 1.6 0.00 0.00 0.00 96 1018.4
20260906124602 22 212 0.0 0.0 0.00 0.00 0.00 96 1018.1
20260906124057 22 221 0.0 0.0 0.00 0.00 0.00 96 1018.2
20260906123556 22 213 0.0 0.0 0.00 0.00 0.00 96 1018.1
20260906123051 22 218 0.0 0.0 0.00 0.00 0.00 96 1018.1
20260906122550 22 220 0.0 0.0 0.00 0.00 0.00 97 1018.0
20260906122046 22 221 0.0 0.0 0.00 0.00 0.00 97 1018.2
20260906121542 22 219 0.0 0.0 0.00 0.00 0.00 97 1017.9
20260906121039 22 216 0.0 0.0 0.00 0.00 0.00 97 1018.1
20260906120534 22 220 0.0 0.0 0.00 0.00 0.00 97 1018.2
20260906120031 22 228 0.0 0.0 0.00 0.00 0.00 97 1017.7
20260906115531 22 221 0.0 0.0 0.00 0.00 0.00 97 1017.7
20260906115026 22 222 0.0 0.0 0.00 0.00 0.00 97 1017.5
20260906114520 22 225 0.0 0.0 0.00 0.00 0.00 97 1017.4
20260906114016 22 225 0.0 0.0 0.00 0.00 0.00 97 1017.4
20260906113515 22 220 0.0 0.0 0.00 0.00 0.00 97 1017.2
20260906113010 22 218 0.0 0.0 0.00 0.00 0.00 97 1017.4
20260906112505 22 217 0.0 0.0 0.00 0.00 0.00 97 1017.1
20260906112001 21 219 0.0 0.0 0.00 0.00 0.00 97 1017.1
20260906111501 21 218 0.0 0.0 0.00 0.00 0.00 97 1017.1
20260906110956 21 217 0.0 0.0 0.00 0.00 0.00 97 1017.0
20260906110450 21 216 0.0 0.0 0.00 0.00 0.00 97 1016.9
20260906105949 21 229 0.0 0.0 0.00 0.00 0.00 97 1016.8
20260906105445 21 222 0.0 0.0 0.00 0.00 0.00 97 1016.9
20260906104941 21 220 0.0 0.0 0.00 0.00 0.00 97 1016.9
20260906104440 21 225 0.0 0.0 0.00 0.00 0.00 97 1016.8
20260906103939 21 231 0.0 0.0 0.00 0.00 0.00 97 1016.7
20260906103437 21 210 0.0 0.0 0.00 0.00 0.00 97 1016.8
20260906102932 21 218 0.0 0.0 0.00 0.00 0.00 97 1016.8
20260906102427 21 217 0.0 0.0 0.00 0.00 0.00 97 1016.6
20260906101922 21 223 0.0 0.0 0.00 0.00 0.00 97 1016.6
20260906101417 21 221 0.0 0.0 0.00 0.00 0.00 97 1016.6
20260906100912 21 214 0.0 0.0 0.00 0.00 0.00 97 1016.4
20260906100412 21 216 0.0 0.0 0.00 0.00 0.00 97 1016.5
20260906095907 21 209 0.0 0.0 0.00 0.00 0.00 97 1016.4
20260906095403 21 220 0.0 0.0 0.00 0.00 0.00 97 1016.5
20260906094902 21 226 0.0 0.0 0.00 0.00 0.00 97 1016.7
20260906094356 21 214 0.0 0.0 0.00 0.00 0.00 97 1016.6
20260906093853 21 215 0.0 0.0 0.00 0.00 0.00 97 1016.2
20260906093348 21 212 0.0 0.0 0.00 0.00 0.00 97 1016.4
20260906092843 21 231 0.0 0.0 0.00 0.00 0.00 97 1016.4
20260906092337 21 219 0.0 0.0 0.00 0.00 0.00 97 1016.0
20260906091833 21 212 0.0 0.0 0.00 0.00 0.00 97 1016.2
20260906091329 21 213 0.0 0.0 0.00 0.00 0.00 96 1016.2
20260906090826 21 208 0.0 0.0 0.00 0.00 0.00 96 1016.4
20260906090324 21 215 0.0 0.0 0.00 0.00 0.00 96 1016.3
20260906085825 21 217 0.0 0.0 0.00 0.00 0.00 96 1016.3
20260906085324 21 219 0.0 0.0 0.00 0.00 0.00 96 1016.5
20260906084818 21 218 0.0 0.0 0.00 0.00 0.00 95 1016.6
20260906084318 21 221 0.0 0.0 0.00 0.00 0.00 95 1016.8
20260906083807 21 215 0.0 0.0 0.00 0.00 0.00 95 1016.6
20260906083303 22 217 0.0 0.0 0.00 0.00 0.00 95 1016.5
20260906082757 22 203 0.0 0.0 0.00 0.00 0.00 95 1016.2
20260906082252 22 215 0.0 0.0 0.00 0.00 0.00 95 1016.4
20260906081748 22 192 0.0 0.0 0.00 0.00 0.00 95 1016.5
20260906081243 22 233 0.0 0.0 0.00 0.00 0.00 95 1016.5
20260906080739 22 243 0.0 0.0 0.00 0.00 0.00 95 1016.5
20260906080236 22 229 1.6 1.6 0.00 0.00 0.00 96 1016.7
20260906075729 22 218 0.0 0.0 0.00 0.00 0.00 96 1016.4
20260906075224 22 221 1.6 1.6 0.00 0.00 0.00 96 1016.6
20260906074719 22 216 0.0 0.0 0.00 0.00 0.00 96 1016.8
20260906074219 22 211 0.0 0.0 0.00 0.00 0.00 95 1016.9
20260906073713 22 240 0.0 1.6 0.00 0.00 0.00 95 1016.8
20260906073208 22 206 0.0 0.0 0.00 0.00 0.00 95 1016.7
20260906072704 22 219 0.0 1.6 0.00 0.00 0.00 95 1016.8
20260906072159 22 220 0.0 0.0 0.00 0.00 0.00 95 1016.7
20260906071655 22 218 0.0 0.0 0.00 0.00 0.00 95 1016.7
20260906071155 22 211 0.0 0.0 0.00 0.00 0.00 95 1016.6
20260906070652 22 210 0.0 0.0 0.00 0.00 0.00 95 1016.7
20260906070147 22 211 0.0 0.0 0.00 0.00 0.00 95 1016.6
20260906065647 22 211 0.0 0.0 0.00 0.00 0.00 95 1016.8
20260906065142 22 213 0.0 0.0 0.00 0.00 0.00 95 1017.0
20260906064638 22 182 0.0 1.6 0.00 0.00 0.00 95 1016.9
20260906064133 23 214 0.0 0.0 0.00 0.00 0.00 95 1017.0
20260906063628 23 209 0.0 0.0 0.00 0.00 0.00 95 1016.7
20260906063124 23 206 0.0 0.0 0.00 0.00 0.00 94 1016.8
20260906062620 23 215 0.0 0.0 0.00 0.00 0.00 94 1016.9
20260906062118 23 209 0.0 0.0 0.00 0.00 0.00 94 1016.7
20260906061615 23 218 0.0 1.6 0.00 0.00 0.00 94 1016.8
20260906061114 23 211 0.0 0.0 0.00 0.00 0.00 94 1016.7
20260906060611 23 192 0.0 0.0 0.00 0.00 0.00 94 1016.7
20260906060108 23 206 0.0 0.0 0.00 0.00 0.00 94 1017.0
20260906055603 23 211 1.6 1.6 0.00 0.00 0.00 94 1016.9
20260906055058 23 245 0.0 0.0 0.00 0.00 0.00 95 1016.9
20260906054558 23 211 0.0 0.0 0.00 0.00 0.00 95 1016.6
20260906054053 23 218 0.0 0.0 0.00 0.00 0.00 95 1016.5
20260906053550 23 216 0.0 0.0 0.00 0.00 0.00 95 1016.4
20260906053045 23 219 0.0 0.0 0.00 0.00 0.00 95 1016.4
20260906052541 23 218 0.0 1.6 0.00 0.00 0.00 95 1016.3
20260906052038 23 212 0.0 0.0 0.00 0.00 0.00 94 1016.1
20260906051533 23 190 0.0 1.6 0.00 0.00 0.00 95 1015.9
20260906051028 23 225 0.0 0.0 0.00 0.00 0.00 95 1016.0
20260906050524 23 224 0.0 0.0 0.00 0.00 0.00 94 1016.1
20260906050018 23 226 0.0 0.0 0.00 0.00 0.00 94 1016.0
20260906045516 23 210 0.0 0.0 0.00 0.00 0.00 94 1015.9
20260906045013 23 204 0.0 0.0 0.00 0.00 0.00 94 1016.2
20260906044508 23 219 0.0 0.0 0.00 0.00 0.00 94 1015.9
20260906044004 23 224 0.0 0.0 0.00 0.00 0.00 94 1016.0
20260906043459 23 224 0.0 0.0 0.00 0.00 0.00 94 1016.0
20260906042955 23 224 0.0 0.0 0.00 0.00 0.00 93 1015.9
20260906042454 23 224 0.0 0.0 0.00 0.00 0.00 93 1015.8
20260906041953 24 224 0.0 0.0 0.00 0.00 0.00 93 1015.9
20260906041450 24 224 0.0 0.0 0.00 0.00 0.00 93 1015.9
20260906040949 24 225 0.0 0.0 0.00 0.00 0.00 93 1015.8
20260906040444 24 212 0.0 0.0 0.00 0.00 0.00 92 1015.9
20260906035940 25 215 0.0 0.0 0.00 0.00 0.00 93 1015.6
20260906035435 25 221 0.0 0.0 0.00 0.00 0.00 92 1015.4
20260906034930 25 213 0.0 0.0 0.00 0.00 0.00 91 1015.6
20260906034425 25 207 0.0 0.0 0.00 0.00 0.00 91 1015.7
20260906033920 25 216 0.0 0.0 0.00 0.00 0.00 91 1015.5
20260906033415 25 207 0.0 0.0 0.00 0.00 0.00 91 1015.5
20260906032911 25 208 0.0 0.0 0.00 0.00 0.00 90 1015.7
20260906032407 25 212 0.0 0.0 0.00 0.00 0.00 90 1015.6
20260906031901 25 211 0.0 0.0 0.00 0.00 0.00 89 1015.3
20260906031356 25 213 0.0 0.0 0.00 0.00 0.00 89 1015.2
20260906030852 26 258 1.6 1.6 0.00 0.00 0.00 89 1015.4
20260906030346 26 212 0.0 0.0 0.00 0.00 0.00 89 1015.4
20260906025841 26 211 0.0 0.0 0.00 0.00 0.00 89 1015.4
20260906025335 26 180 1.6 1.6 0.00 0.00 0.00 89 1015.2
20260906024834 26 236 1.6 1.6 0.00 0.00 0.00 89 1015.2
20260906024333 26 211 0.0 1.6 0.00 0.00 0.00 89 1015.5
20260906023829 26 206 0.0 0.0 0.00 0.00 0.00 88 1015.2
20260906023324 26 233 0.0 0.0 0.00 0.00 0.00 88 1015.0
20260906022820 27 210 0.0 1.6 0.00 0.00 0.00 87 1014.8
20260906022315 27 218 1.6 3.2 0.00 0.00 0.00 87 1015.0
20260906021811 27 210 1.6 1.6 0.00 0.00 0.00 87 1014.6
20260906021309 27 226 1.6 1.6 0.00 0.00 0.00 87 1014.5
20260906020804 27 198 1.6 1.6 0.00 0.00 0.00 88 1014.3
20260906020304 27 204 1.6 1.6 0.00 0.00 0.00 88 1014.3
20260906015759 27 210 0.0 0.0 0.00 0.00 0.00 88 1014.4
20260906015257 27 150 1.6 1.6 0.00 0.00 0.00 89 1014.4
20260906014751 27 242 1.6 1.6 0.00 0.00 0.00 88 1014.2
20260906014247 27 233 1.6 1.6 0.00 0.00 0.00 89 1014.2
20260906013743 28 221 1.6 1.6 0.00 0.00 0.00 88 1014.1
20260906013243 28 198 3.2 3.2 0.00 0.00 0.00 88 1013.9
20260906012739 28 237 1.6 1.6 0.00 0.00 0.00 88 1014.0
20260906012234 28 241 3.2 4.8 0.00 0.00 0.00 87 1014.1
20260906011729 28 265 4.8 4.8 0.00 0.00 0.00 86 1013.9
20260906011229 28 221 1.6 3.2 0.00 0.00 0.00 86 1014.0
20260906010724 28 234 1.6 1.6 0.00 0.00 0.00 85 1013.6
20260906010220 28 221 0.0 1.6 0.00 0.00 0.00 85 1013.6
20260906005715 28 221 0.0 0.0 0.00 0.00 0.00 85 1013.8
20260906005215 29 220 0.0 0.0 0.00 0.00 0.00 85 1013.5
20260906004714 29 217 0.0 0.0 0.00 0.00 0.00 85 1013.4
20260906004209 29 223 0.0 0.0 0.00 0.00 0.00 85 1013.6
20260906003704 30 218 0.0 0.0 0.00 0.00 0.00 84 1013.5
20260906003159 30 219 0.0 0.0 0.00 0.00 0.00 84 1013.3
20260906002654 30 240 1.6 1.6 0.00 0.00 0.00 84 1013.4
20260906002149 30 222 0.0 0.0 0.00 0.00 0.00 84 1013.3
20260906001644 30 223 0.0 0.0 0.00 0.00 0.00 84 1013.4
20260906001144 30 221 0.0 0.0 0.00 0.00 0.00 84 1013.6
20260906000639 30 221 0.0 0.0 0.00 0.00 0.00 83 1013.7
20260906000135 30 221 0.0 0.0 0.00 0.00 0.00 81 1013.3
20260905235633 31 222 0.0 0.0 0.00 0.00 0.00 80 1013.4
20260905235129 31 222 0.0 0.0 0.00 0.00 0.00 79 1013.5
20260905234624 31 216 0.0 0.0 0.00 0.00 0.00 79 1013.4
20260905234120 31 221 0.0 0.0 0.00 0.00 0.00 79 1013.3
20260905233614 31 232 0.0 0.0 0.00 0.00 0.00 79 1013.4
20260905233108 31 216 0.0 0.0 0.00 0.00 0.00 78 1013.4
20260905232604 31 217 0.0 0.0 0.00 0.00 0.00 77 1013.5
20260905232059 31 219 1.6 1.6 0.00 0.00 0.00 77 1013.2
20260905231554 32 228 0.0 1.6 0.00 0.00 0.00 77 1013.3
20260905231051 32 218 0.0 0.0 0.00 0.00 0.00 78 1013.4
20260905230550 32 227 0.0 0.0 0.00 0.00 0.00 77 1013.1
20260905230049 32 220 0.0 0.0 0.00 0.00 0.00 77 1013.2
20260905225549 32 235 1.6 1.6 0.00 0.00 0.00 76 1013.2
20260905225044 32 228 1.6 1.6 0.00 0.00 0.00 76 1013.2
20260905224544 32 206 1.6 1.6 0.00 0.00 0.00 77 1013.3
20260905224043 31 226 0.0 0.0 0.00 0.00 0.00 79 1013.3
20260905223541 31 221 0.0 0.0 0.00 0.00 0.00 79 1013.1
20260905223037 31 226 0.0 1.6 0.00 0.00 0.00 78 1013.3
20260905222537 31 218 0.0 1.6 0.00 0.00 0.00 79 1013.3
20260905222032 31 220 0.0 0.0 0.00 0.00 0.00 78 1013.0
20260905221528 32 225 0.0 0.0 0.00 0.00 0.00 78 1013.2
20260905221024 32 220 0.0 1.6 0.00 0.00 0.00 78 1013.4
20260905220520 32 213 1.6 1.6 0.00 0.00 0.00 77 1013.2
20260905220016 32 217 0.0 1.6 0.00 0.00 0.00 76 1013.2
20260905215510 32 227 0.0 0.0 0.00 0.00 0.00 76 1013.3
20260905215006 32 311 4.8 4.8 0.00 0.00 0.00 74 1013.4
20260905214502 32 234 1.6 1.6 0.00 0.00 0.00 75 1013.3
20260905214002 32 195 0.0 0.0 0.00 0.00 0.00 74 1013.5
20260905213457 32 238 1.6 1.6 0.00 0.00 0.00 73 1013.3
20260905212953 32 216 0.0 0.0 0.00 0.00 0.00 73 1013.3
20260905212447 32 240 0.0 1.6 0.00 0.00 0.00 73 1013.3
20260905211946 33 244 1.6 1.6 0.00 0.00 0.00 71 1013.2
20260905211442 33 232 3.2 3.2 0.00 0.00 0.00 72 1013.0
20260905210938 33 203 3.2 3.2 0.00 0.00 0.00 70 1013.2
20260905210432 34 227 0.0 0.0 0.00 0.00 0.00 70 1013.3
20260905205932 33 219 0.0 0.0 0.00 0.00 0.00 70 1013.3
20260905205427 34 222 0.0 0.0 0.00 0.00 0.00 69 1013.4
20260905204926 33 224 0.0 0.0 0.00 0.00 0.00 69 1013.6
20260905204422 33 229 1.6 1.6 0.00 0.00 0.00 69 1013.3
20260905203921 34 228 0.0 0.0 0.00 0.00 0.00 69 1013.4
20260905203416 34 221 0.0 0.0 0.00 0.00 0.00 68 1013.4
20260905202912 34 213 1.6 1.6 0.00 0.00 0.00 68 1013.5
20260905202407 34 145 0.0 1.6 0.00 0.00 0.00 65 1013.5
20260905201902 34 245 3.2 3.2 0.00 0.00 0.00 65 1013.6
20260905201357 35 233 4.8 4.8 0.00 0.00 0.00 64 1013.5
20260905200851 35 239 1.6 1.6 0.00 0.00 0.00 64 1013.6
20260905200348 35 61 4.8 4.8 0.00 0.00 0.00 65 1013.6
20260905195846 35 219 1.6 1.6 0.00 0.00 0.00 67 1013.7
20260905195341 35 232 0.0 0.0 0.00 0.00 0.00 66 1013.7
20260905194837 35 222 0.0 0.0 0.00 0.00 0.00 69 1013.8
20260905194336 34 182 1.6 1.6 0.00 0.00 0.00 70 1013.9
20260905193836 34 280 1.6 3.2 0.00 0.00 0.00 67 1013.8
20260905193331 34 246 1.6 3.2 0.00 0.00 0.00 67 1013.7
20260905192827 35 246 3.2 3.2 0.00 0.00 0.00 65 1013.9
20260905192322 35 220 0.0 0.0 0.00 0.00 0.00 64 1013.8
20260905191821 35 255 1.6 1.6 0.00 0.00 0.00 66 1013.8
20260905191320 35 219 1.6 3.2 0.00 0.00 0.00 66 1013.8
20260905190819 35 222 0.0 1.6 0.00 0.00 0.00 68 1013.8
20260905190313 35 218 0.0 0.0 0.00 0.00 0.00 63 1013.8
20260905185811 35 228 0.0 0.0 0.00 0.00 0.00 65 1013.7
20260905185307 35 252 1.6 1.6 0.00 0.00 0.00 63 1013.8
20260905184801 35 258 1.6 1.6 0.00 0.00 0.00 66 1013.8
20260905184259 35 287 3.2 4.8 0.00 0.00 0.00 63 1014.1
20260905183753 35 241 1.6 3.2 0.00 0.00 0.00 62 1014.1
20260905183248 35 219 1.6 1.6 0.00 0.00 0.00 60 1014.1
20260905182747 35 243 4.8 8.0 0.00 0.00 0.00 63 1014.2
20260905182242 35 235 6.4 8.0 0.00 0.00 0.00 61 1014.2
20260905181737 35 211 1.6 1.6 0.00 0.00 0.00 60 1014.5
20260905181236 35 220 1.6 1.6 0.00 0.00 0.00 62 1014.4
20260905180732 35 255 3.2 3.2 0.00 0.00 0.00 63 1014.5
20260905180227 35 99 3.2 4.8 0.00 0.00 0.00 62 1014.4
20260905175726 35 92 4.8 4.8 0.00 0.00 0.00 64 1014.3
20260905175221 35 258 1.6 3.2 0.00 0.00 0.00 65 1014.4
20260905174716 35 221 1.6 1.6 0.00 0.00 0.00 63 1014.5
20260905174212 35 145 4.8 4.8 0.00 0.00 0.00 63 1014.5
20260905173708 35 196 1.6 1.6 0.00 0.00 0.00 62 1014.7
20260905173203 35 263 4.8 4.8 0.00 0.00 0.00 63 1015.0
20260905172703 35 268 4.8 4.8 0.00 0.00 0.00 64 1014.3
20260905172157 35 261 4.8 8.0 0.00 0.00 0.00 62 1014.6
20260905171653 35 343 4.8 8.0 0.00 0.00 0.00 63 1014.4
20260905171149 35 290 1.6 3.2 0.00 0.00 0.00 64 1014.4
20260905170646 35 213 0.0 1.6 0.00 0.00 0.00 62 1014.7
20260905170141 35 295 3.2 8.0 0.00 0.00 0.00 63 1014.5
20260905165640 34 300 3.2 3.2 0.00 0.00 0.00 66 1014.8
20260905165136 35 162 1.6 1.6 0.00 0.00 0.00 66 1014.8
20260905164631 35 165 0.0 0.0 0.00 0.00 0.00 66 1014.7
20260905164130 35 299 1.6 3.2 0.00 0.00 0.00 66 1014.5
20260905163626 35 308 1.6 1.6 0.00 0.00 0.00 63 1014.7
20260905163122 34 216 3.2 3.2 0.00 0.00 0.00 66 1014.7
20260905162618 34 228 1.6 3.2 0.00 0.00 0.00 65 1014.5
20260905162118 34 215 3.2 3.2 0.00 0.00 0.00 66 1014.7
20260905161617 34 232 1.6 1.6 0.00 0.00 0.00 66 1014.6
20260905161115 33 300 3.2 3.2 0.00 0.00 0.00 66 1014.7
20260905160615 33 216 1.6 3.2 0.00 0.00 0.00 67 1014.8
20260905160109 33 226 1.6 1.6 0.00 0.00 0.00 68 1015.1
20260905155604 33 259 6.4 8.0 0.00 0.00 0.00 66 1015.0
20260905155102 33 244 1.6 1.6 0.00 0.00 0.00 66 1014.7
20260905154557 33 220 1.6 1.6 0.00 0.00 0.00 69 1014.7
20260905154053 33 209 0.0 0.0 0.00 0.00 0.00 68 1014.7
20260905153548 33 234 1.6 1.6 0.00 0.00 0.00 69 1014.6
20260905153048 32 223 0.0 1.6 0.00 0.00 0.00 70 1014.4
20260905152543 32 228 3.2 3.2 0.00 0.00 0.00 69 1014.6
20260905152038 32 243 4.8 4.8 0.00 0.00 0.00 69 1014.6
20260905151533 32 145 1.6 1.6 0.00 0.00 0.00 69 1014.6
20260905151029 32 227 1.6 1.6 0.00 0.00 0.00 70 1014.7
20260905150524 32 208 0.0 0.0 0.00 0.00 0.00 71 1014.6
20260905150021 32 253 3.2 3.2 0.00 0.00 0.00 73 1014.5
20260905145514 32 243 4.8 4.8 0.00 0.00 0.00 71 1014.4
20260905145009 32 235 0.0 1.6 0.00 0.00 0.00 74 1014.4
20260905144504 32 212 1.6 1.6 0.00 0.00 0.00 76 1014.2
20260905144003 31 213 0.0 0.0 0.00 0.00 0.00 75 1014.5
20260905143502 31 209 1.6 1.6 0.00 0.00 0.00 76 1014.0
20260905142957 30 240 3.2 3.2 0.00 0.00 0.00 75 1014.0
20260905142456 31 227 1.6 1.6 0.00 0.00 0.00 77 1014.0
20260905141951 30 229 3.2 3.2 0.00 0.00 0.00 76 1013.9
20260905141446 30 224 1.6 3.2 0.00 0.00 0.00 76 1014.0
20260905140943 30 212 0.0 1.6 0.00 0.00 0.00 78 1014.1
20260905140437 30 214 0.0 0.0 0.00 0.00 0.00 78 1014.0